カタログに戻る

STARLINK-30315

運用中通信VLEO
NORAD 57708·PAYLOAD·🇺🇸 United States

打ち上げ Aug 27, 2023 から Cape Canaveral Space Force Station

Loading…

次のパス (今後24時間)

TLE

最新Source: CelesTrak SupGP

元期: Sep 15, 2026, 02:29 UTC

1 57708C 23129L   26258.10395833  .00059837  00000+0  21668-2 0  2583
2 57708  43.0002 128.1391 0001524 274.4503  14.8061 15.27555491    15

AllMySatでSTARLINK-30315をリアルタイム追跡

Download on the App Store